Theta_e
346 343 340 345 340 340 344 349 352 353 353 352 352 352 351 349 347 343 336 341 344 347 346 341 344 348 348 348 348 348 347 345 347 347 346 345 345 346 346 348 347 346 345
351 350 350 348 350 350 351 351 353 353 352 351 350 351 351 349 346 340 339 341 346 347 342 340 341 346 347 348 347 347 348 347 346 347 346 346 345 345 346 346 346 346 345
347 349 351 350 347 350 349 350 351 350 351 351 350 350 349 347 344 343 336 339 343 347 348 346 347 347 348 349 348 347 348 348 347 347 347 347 346 347 346 347 345 347 346
344 348 347 345 345 343 344 345 344 345 346 347 346 347 348 349 347 344 341 347 345 346 348 349 349 346 347 347 348 348 347 347 348 347 347 346 346 347 346 346 345 344 345
339 341 342 342 342 339 332 339 341 342 341 340 342 344 347 348 348 348 349 350 349 349 349 348 346 344 341 340 347 347 347 347 347 347 347 346 345 345 344 346 344 343 342
339 338 337 338 339 338 339 336 338 338 337 338 340 340 343 345 343 339 341 346 347 347 346 345 339 337 338 344 347 347 346 347 347 347 347 347 346 345 346 346 344 342 344
331 335 336 336 336 335 333 334 335 334 332 332 334 335 334 332 332 341 345 343 342 340 337 337 338 338 342 343 344 344 345 347 347 347 347 346 347 346 346 345 344 344 346
328 328 329 330 332 334 334 333 333 333 333 332 331 332 333 332 331 332 335 341 345 345 344 343 342 338 336 336 341 343 344 344 344 345 346 346 345 345 346 346 346 345 346
327 328 329 330 331 331 332 333 334 333 333 333 333 331 332 331 330 330 332 335 336 333 333 335 342 343 340 339 332 341 342 339 339 343 343 345 344 346 347 347 345 346 348
326 326 327 327 327 327 329 330 332 334 335 335 334 334 334 333 331 331 332 334 335 334 333 334 336 338 341 343 334 335 342 339 335 336 341 344 346 346 347 347 347 346 347
325 325 326 327 327 328 329 328 328 330 332 332 332 332 334 334 334 332 332 332 333 333 335 336 335 334 333 335 340 332 340 341 334 335 341 343 345 346 347 347 347 347 347
321 322 325 326 326 327 327 328 328 328 329 330 331 332 331 331 331 334 334 332 332 333 333 333 335 335 334 335 336 337 335 340 340 337 336 340 343 343 344 346 347 348 348
315 315 315 318 321 326 327 326 327 328 328 329 330 331 331 331 332 331 331 333 332 330 330 332 333 332 333 338 340 340 340 336 335 338 340 339 340 342 343 343 345 345 346
312 312 312 312 313 316 321 326 325 327 327 329 329 330 329 329 330 330 330 331 331 330 331 332 332 332 333 335 338 340 339 338 335 335 340 340 338 342 342 341 343 345 345
312 312 312 312 312 312 314 318 323 327 327 328 328 329 329 330 330 330 330 330 329 330 331 330 330 331 331 334 335 333 335 337 336 337 337 340 340 340 342 342 342 344 346
312 312 312 312 312 312 313 314 320 325 326 327 327 328 328 329 329 329 329 329 330 330 330 330 331 330 331 332 334 337 339 338 337 338 339 340 341 341 340 342 343 343 344
312 312 312 312 312 313 313 314 316 320 326 328 327 327 327 327 327 329 329 329 329 328 326 329 330 330 330 331 332 335 338 339 339 338 339 340 341 341 340 341 342 343 343
311 311 312 314 314 313 313 314 315 318 324 327 327 327 327 328 328 328 328 327 322 322 323 324 327 328 329 330 331 332 333 335 339 341 341 340 341 341 341 340 338 340 342
311 311 312 313 315 315 315 315 317 320 324 326 328 327 327 327 327 326 327 327 325 324 324 323 325 326 328 329 331 332 333 334 334 334 337 339 340 342 342 340 335 337 341
311 311 311 310 310 311 312 314 316 317 321 323 324 326 325 326 326 327 327 327 325 324 323 324 325 326 327 327 328 329 330 332 334 334 335 338 339 340 341 342 340 338 340
311 311 311 310 309 309 308 309 310 310 311 314 316 317 320 323 324 327 326 327 326 326 325 324 325 326 326 326 326 328 329 331 332 333 333 335 338 340 340 340 340 341 342
310 310 310 310 309 309 308 308 307 307 307 309 309 310 311 313 316 320 322 323 324 324 324 324 324 324 325 326 326 327 327 329 331 331 331 333 335 337 339 341 342 343 341
308 309 309 309 309 309 308 308 307 306 306 306 306 307 307 307 308 309 310 311 312 315 318 320 323 325 326 327 327 328 329 329 330 332 332 333 335 336 337 339 340 340 340
305 306 306 307 306 307 307 307 307 306 306 306 305 305 305 305 305 305 306 306 308 309 310 311 313 317 320 324 327 329 330 330 331 332 332 333 334 335 337 338 338 339 339
304 304 304 304 303 303 304 305 305 304 305 304 304 304 304 304 304 304 304 305 305 306 307 307 307 308 311 316 321 323 324 328 330 332 333 334 335 335 336 338 339 339 340
302 303 303 302 302 302 301 301 301 301 301 301 302 303 301 301 302 303 305 307 303 305 306 307 310 310 310 312 312 313 318 323 325 329 332 333 335 336 336 337 338 338 337
Wind_Speed
11 12 14 17 16 24 30 29 24 16 14 17 19 20 22 22 23 24 23 18 20 18 18 18 17 19 20 20 22 23 26 25 13 14 19 22 19 17 17 15 14 17 19
7 9 12 17 17 16 18 19 15 14 15 16 17 20 22 24 24 23 19 19 20 23 21 18 16 16 18 23 24 25 25 27 22 18 19 23 22 19 18 18 18 17 16
6 6 7 5 4 7 9 6 4 8 10 11 13 16 20 24 28 26 23 21 23 25 27 30 32 23 23 24 27 26 25 25 27 20 18 22 24 21 19 20 20 20 19
7 7 6 3 1 3 5 4 4 4 5 7 10 13 14 15 18 23 24 25 24 27 27 27 26 27 25 23 25 27 24 22 23 22 19 20 23 21 20 18 19 23 24
13 11 10 10 8 6 3 5 5 5 5 7 7 7 10 12 14 16 18 20 23 24 22 24 25 23 23 24 24 26 26 23 22 19 19 16 16 17 14 19 22 19 18
20 23 19 19 16 16 14 14 12 11 11 11 11 9 7 9 8 9 12 14 15 16 18 21 23 21 21 21 23 27 28 27 25 21 19 17 20 23 25 22 18 9 5
14 17 24 24 25 26 23 19 19 18 18 16 16 14 13 12 10 10 10 12 15 18 19 20 22 20 18 18 19 20 24 23 26 27 24 25 21 27 27 24 20 17 15
23 20 18 17 21 26 29 26 25 24 22 21 19 19 18 18 16 16 14 15 17 19 21 22 22 22 20 18 18 18 20 23 29 31 31 27 31 27 26 27 27 25 22
23 23 22 22 24 25 24 26 29 29 28 27 26 24 23 22 20 17 17 19 20 24 25 25 24 25 26 24 22 24 24 24 22 24 32 33 32 28 27 23 21 16 10
21 23 24 28 29 28 26 26 25 25 28 29 33 33 31 28 26 25 22 22 24 28 29 29 25 25 24 27 24 25 21 28 21 20 23 28 30 30 28 28 26 22 14
26 27 26 24 23 23 24 26 27 27 25 25 26 29 32 34 34 30 28 26 26 28 26 25 28 28 26 22 25 27 30 30 19 17 19 20 16 21 27 26 30 32 25
25 25 26 26 26 22 22 25 24 26 26 25 25 26 29 33 33 34 33 30 29 29 26 28 29 27 25 24 23 27 30 31 31 23 22 17 19 20 20 25 28 32 33
27 26 26 28 27 25 23 23 22 21 20 21 21 20 22 25 28 31 30 33 32 29 31 31 30 30 28 25 24 24 23 29 27 21 22 23 23 24 25 20 25 28 30
29 28 26 25 26 26 24 23 20 19 19 19 19 19 21 22 22 28 30 28 27 25 24 26 27 28 28 27 26 27 28 29 27 26 23 24 23 20 23 25 20 25 21
27 26 25 23 23 24 23 25 24 23 23 21 21 20 19 18 22 23 26 25 22 18 17 18 19 17 14 14 17 19 23 27 24 25 23 23 24 21 21 24 24 23 21
28 26 25 25 23 22 22 26 24 23 25 24 27 30 31 30 29 25 24 21 18 18 15 12 13 16 17 18 17 15 16 21 24 24 24 23 22 24 21 20 24 24 24
28 28 27 25 22 20 19 20 20 27 24 23 25 24 26 28 28 28 29 26 24 21 15 16 17 20 22 21 21 20 18 21 24 23 23 23 24 24 23 20 19 22 25
30 29 27 26 23 20 19 19 19 19 20 20 20 19 18 17 19 20 20 22 17 15 17 18 19 22 26 24 24 24 23 24 20 21 22 23 23 23 20 21 21 19 19
28 27 29 27 24 24 22 21 19 19 17 19 20 20 18 16 16 15 14 18 18 15 18 17 19 19 21 21 21 22 23 23 26 26 23 21 21 21 21 23 24 22 25
27 26 26 25 25 24 23 21 19 19 17 16 17 16 18 16 13 15 15 16 18 18 16 16 19 22 23 22 23 23 22 22 24 26 25 24 22 23 23 24 25 22 22
26 26 26 25 23 21 20 20 21 20 19 19 20 22 26 16 13 12 13 14 18 18 19 19 21 24 26 25 22 21 21 22 21 23 22 23 24 20 24 23 26 28 26
24 24 24 23 23 23 23 22 22 21 20 20 22 23 25 22 21 20 17 13 11 14 16 16 18 18 20 21 22 19 22 22 22 23 24 24 23 23 22 21 21 20 18
21 21 22 22 23 23 23 22 23 24 22 22 22 23 23 21 21 21 22 21 20 18 15 13 14 16 17 19 20 22 22 24 25 23 21 23 24 23 23 23 23 20 19
24 21 20 20 22 22 23 23 23 24 23 21 23 24 24 23 23 22 22 23 22 20 16 15 14 15 14 14 16 21 23 26 26 24 26 23 23 23 23 23 22 23 23
23 22 20 19 19 20 21 22 22 22 22 23 25 26 27 25 27 27 28 26 23 23 22 21 19 17 17 19 22 21 20 23 27 29 26 24 25 27 23 23 22 23 24
22 21 21 22 21 23 21 21 21 22 23 24 26 30 29 27 29 29 34 33 30 27 26 24 24 24 24 22 19 20 25 26 24 25 30 29 25 26 26 23 23 22 22
Wind_Direction
278 279 285 302 289 268 282 277 274 271 272 270 262 253 248 241 236 241 251 245 247 231 232 244 248 254 252 250 252 252 243 229 231 250 254 262 267 274 272 272 266 257 254
312 311 303 300 300 292 284 277 267 258 266 271 258 252 249 247 243 240 240 254 251 246 242 239 253 255 261 256 255 246 243 244 225 235 246 255 258 261 268 264 260 260 259
316 295 283 286 323 25 31 4 290 269 266 268 267 264 261 255 247 242 247 264 254 252 254 256 262 268 268 256 251 247 243 238 237 233 240 251 257 256 257 258 256 251 247
288 278 276 253 131 63 27 10 4 346 317 303 289 282 271 268 263 246 252 262 254 254 256 259 255 261 261 260 253 249 244 234 227 225 239 245 251 251 246 248 253 248 242
282 270 246 252 241 219 258 243 247 251 260 272 286 303 284 261 260 259 258 258 255 252 250 249 257 263 270 271 256 250 240 232 227 222 229 236 231 225 223 238 239 250 246
283 264 269 272 264 258 249 222 225 240 244 247 254 256 260 271 271 263 254 253 255 251 252 260 268 280 275 271 267 264 254 226 222 216 222 223 224 225 235 231 223 227 242
328 284 269 272 273 267 259 250 241 236 240 249 252 250 249 255 268 270 264 257 259 261 262 270 278 279 276 275 272 282 256 242 240 230 222 224 227 232 234 234 234 228 228
329 331 329 319 299 287 281 274 262 255 250 247 251 255 257 262 268 269 268 265 260 263 266 270 271 272 272 277 282 270 257 257 251 243 243 240 243 240 239 240 244 238 244
329 329 324 326 324 312 300 286 272 270 264 260 256 255 256 262 264 263 268 268 267 273 274 271 271 270 269 271 269 261 255 266 272 268 252 253 246 242 237 239 227 199 213
330 323 312 308 308 305 305 301 295 278 271 267 263 260 255 252 257 260 258 259 267 274 278 278 272 270 274 273 261 254 251 258 275 276 264 252 241 242 241 238 228 205 201
321 319 317 313 304 298 300 299 299 293 286 280 278 278 274 267 262 257 257 258 260 269 269 269 275 279 275 274 258 254 248 256 261 272 258 265 241 238 237 231 226 223 205
334 328 318 312 310 298 298 300 293 285 282 276 273 270 273 276 272 268 261 259 264 265 262 266 272 276 277 273 261 256 255 257 258 258 269 258 255 252 251 244 232 226 229
328 326 320 312 307 300 288 293 290 283 277 276 271 265 266 268 271 272 270 267 264 267 269 266 270 272 270 268 260 257 254 255 251 246 245 250 257 250 250 265 257 241 244
323 318 315 311 309 308 304 285 277 277 276 269 266 262 262 261 259 264 267 266 267 270 265 264 263 265 263 262 259 258 253 253 249 242 239 242 258 261 246 247 257 250 245
315 308 305 303 302 303 304 298 294 278 271 272 270 266 262 260 261 265 271 272 271 269 276 277 263 249 245 248 251 258 251 252 239 238 236 234 231 239 245 253 253 243 226
319 317 311 305 302 299 303 307 301 294 287 279 278 276 273 268 269 270 267 271 269 275 277 261 240 251 252 253 243 246 247 242 243 237 232 224 217 213 232 241 239 235 234
328 323 319 313 303 296 298 300 307 302 301 282 289 281 277 275 272 265 264 268 269 270 250 240 242 252 254 254 252 245 245 247 250 234 228 227 220 216 216 229 232 236 237
339 334 330 319 310 302 292 290 291 287 294 294 294 296 299 288 279 268 263 264 256 247 244 243 240 239 250 252 252 254 251 258 243 233 225 226 225 209 211 216 232 244 241
342 343 344 344 346 334 311 296 290 286 299 301 301 307 317 304 275 276 275 258 254 248 250 246 245 245 249 255 255 256 255 254 251 250 244 229 224 217 215 219 233 240 244
349 349 355 351 352 354 351 352 354 352 348 343 338 328 326 312 293 276 269 268 259 260 256 248 249 252 256 255 254 257 258 256 252 249 243 240 225 219 224 224 220 231 241
353 352 354 357 357 356 355 356 353 352 351 350 347 350 5 345 302 294 293 295 284 280 276 267 267 267 266 266 262 257 255 254 248 248 248 241 237 221 224 229 235 226 227
357 352 353 354 356 2 4 6 4 357 358 354 350 350 3 9 3 356 344 337 323 309 302 287 280 272 270 268 266 255 251 250 249 243 246 246 239 234 232 228 232 232 238
6 1 1 1 2 359 4 9 12 7 3 4 2 0 359 3 3 358 352 348 342 331 317 311 302 284 279 275 269 260 253 250 253 252 244 240 237 230 226 225 224 224 219
19 14 8 5 5 5 5 4 6 8 7 4 15 9 2 3 5 0 353 355 352 352 345 331 316 300 293 293 280 275 274 271 264 255 254 246 244 237 225 224 222 221 225
17 17 14 10 5 4 5 5 5 3 5 10 10 11 10 359 7 3 4 359 351 354 359 0 354 335 318 296 281 276 271 263 261 262 259 252 244 241 230 224 226 228 226
10 11 12 12 11 13 10 4 4 5 5 4 13 17 9 360 3 5 9 13 353 359 9 13 9 2 358 349 322 293 268 264 266 261 250 245 244 246 242 228 231 230 230